DAL474 KSEA-KBOS

Flight info

Callsign DAL474
Flight time N/A
Altitude 35000
Route MONTN2 SEA ZADON ZELAK ZIRAN ZAXBY BLOWS GTF COKEE WILTN Q140 TTAIL/N0460F370 SNARG RUBKI Q140 AHPAH GONZZ PONCT JFUND2
Aircraft A21N/M-SDE3FGHIRWY/LB1

Departure

Time 2026-05-06 21:02
Airport Seattle–Tacoma International Airport (KSEA)

Arrival

Time N/A
Airport Boston Logan International Airport (KBOS)
Time Latitude Longitude Altitude Speed Heading
2026-05-06 20:35 47.44184 -122.30179 383 ft 0 kts 44°
2026-05-06 20:48 47.44183 -122.30180 383 ft 1 kts 44°
2026-05-06 20:49 47.44173 -122.30195 383 ft 1 kts 44°
2026-05-06 20:49 47.44165 -122.30205 383 ft 2 kts 40°
2026-05-06 20:49 47.44153 -122.30217 382 ft 2 kts 26°
2026-05-06 20:49 47.44139 -122.30225 382 ft 2 kts 15°
2026-05-06 20:50 47.44125 -122.30230 382 ft 2 kts
2026-05-06 20:50 47.44110 -122.30229 381 ft 2 kts 353°
2026-05-06 20:50 47.44095 -122.30225 381 ft 2 kts 342°
2026-05-06 20:50 47.44082 -122.30216 381 ft 2 kts 330°
2026-05-06 20:51 47.44069 -122.30204 381 ft 2 kts 319°
2026-05-06 20:51 47.44059 -122.30188 380 ft 2 kts 308°
2026-05-06 20:51 47.44051 -122.30170 380 ft 2 kts 296°
2026-05-06 20:51 47.44045 -122.30149 380 ft 2 kts 285°
2026-05-06 20:52 47.44044 -122.30138 380 ft 1 kts 278°
2026-05-06 20:52 47.44043 -122.30133 380 ft 0 kts 279°
2026-05-06 20:53 47.44043 -122.30135 380 ft 0 kts 279°
2026-05-06 20:54 47.44046 -122.30160 380 ft 4 kts 279°
2026-05-06 20:54 47.44039 -122.30221 380 ft 8 kts 241°
2026-05-06 20:54 47.44000 -122.30306 379 ft 11 kts 247°
2026-05-06 20:54 47.43990 -122.30431 377 ft 12 kts 271°
2026-05-06 20:55 47.43990 -122.30478 376 ft 0 kts 270°
2026-05-06 20:55 47.43990 -122.30487 376 ft 2 kts 270°
2026-05-06 20:55 47.43990 -122.30544 376 ft 7 kts 270°
2026-05-06 20:55 47.44017 -122.30625 377 ft 10 kts 338°
2026-05-06 20:56 47.44095 -122.30635 380 ft 11 kts
2026-05-06 20:56 47.44181 -122.30634 383 ft 13 kts
2026-05-06 20:56 47.44288 -122.30634 385 ft 16 kts
2026-05-06 20:56 47.44398 -122.30633 389 ft 15 kts
2026-05-06 20:57 47.44508 -122.30631 393 ft 17 kts
2026-05-06 20:57 47.44651 -122.30630 396 ft 21 kts
2026-05-06 20:57 47.44792 -122.30627 401 ft 19 kts
2026-05-06 20:57 47.44922 -122.30626 406 ft 17 kts
2026-05-06 20:58 47.45052 -122.30626 413 ft 19 kts
2026-05-06 20:58 47.45203 -122.30624 420 ft 20 kts
2026-05-06 20:58 47.45356 -122.30621 427 ft 23 kts
2026-05-06 20:58 47.45512 -122.30621 434 ft 20 kts
2026-05-06 20:59 47.45648 -122.30619 439 ft 19 kts
2026-05-06 20:59 47.45792 -122.30618 440 ft 20 kts
2026-05-06 20:59 47.45930 -122.30616 441 ft 19 kts
2026-05-06 20:59 47.46066 -122.30617 439 ft 20 kts 360°
2026-05-06 21:00 47.46213 -122.30614 431 ft 22 kts
2026-05-06 21:00 47.46325 -122.30614 422 ft 11 kts 359°
2026-05-06 21:00 47.46377 -122.30683 413 ft 12 kts 270°
2026-05-06 21:00 47.46349 -122.30764 409 ft 8 kts 222°
2026-05-06 21:01 47.46310 -122.30775 412 ft 6 kts 180°
2026-05-06 21:01 47.46077 -122.30778 430 ft 68 kts 180°
2026-05-06 21:01 47.45367 -122.30783 425 ft 135 kts 180°
2026-05-06 21:01 47.44270 -122.30780 721 ft 161 kts 181°
2026-05-06 21:02 47.43179 -122.30748 1403 ft 160 kts 181°
2026-05-06 21:02 47.42075 -122.30721 2041 ft 162 kts 181°
2026-05-06 21:02 47.40958 -122.30701 2600 ft 162 kts 182°
2026-05-06 21:02 47.39799 -122.30743 2854 ft 174 kts 185°
2026-05-06 21:03 47.38533 -122.30843 3111 ft 189 kts 186°
2026-05-06 21:03 47.37155 -122.30936 3402 ft 205 kts 184°
2026-05-06 21:03 47.35697 -122.30990 3755 ft 217 kts 183°
2026-05-06 21:03 47.34156 -122.30814 4120 ft 233 kts 163°
2026-05-06 21:04 47.32796 -122.29417 4446 ft 252 kts 126°
2026-05-06 21:04 47.32203 -122.26913 4850 ft 267 kts 90°
2026-05-06 21:04 47.32338 -122.24167 5440 ft 272 kts 85°
2026-05-06 21:04 47.32494 -122.21363 6115 ft 274 kts 85°
2026-05-06 21:05 47.32755 -122.18623 6768 ft 275 kts 70°
2026-05-06 21:05 47.33676 -122.16197 7373 ft 275 kts 49°
2026-05-06 21:05 47.34952 -122.14036 7997 ft 278 kts 46°
2026-05-06 21:05 47.36230 -122.11908 8528 ft 283 kts 46°
2026-05-06 21:06 47.37516 -122.09677 9095 ft 288 kts 49°
2026-05-06 21:06 47.38778 -122.07336 9709 ft 291 kts 49°
2026-05-06 21:06 47.40021 -122.04977 10318 ft 293 kts 50°
2026-05-06 21:06 47.41282 -122.02567 10626 ft 306 kts 50°
2026-05-06 21:07 47.42617 -122.00015 10885 ft 320 kts 50°
2026-05-06 21:07 47.44009 -121.97345 11254 ft 329 kts 50°
2026-05-06 21:07 47.45408 -121.94653 11841 ft 331 kts 50°
2026-05-06 21:07 47.46796 -121.91979 12449 ft 331 kts 50°
2026-05-06 21:08 47.48208 -121.89258 12996 ft 334 kts 50°
2026-05-06 21:08 47.49625 -121.86524 13513 ft 337 kts 50°
2026-05-06 21:08 47.51065 -121.83745 14027 ft 339 kts 49°
2026-05-06 21:08 47.52501 -121.80971 14527 ft 342 kts 49°
2026-05-06 21:09 47.53942 -121.78185 15013 ft 345 kts 49°
2026-05-06 21:09 47.55286 -121.75211 15471 ft 351 kts 60°
2026-05-06 21:09 47.56073 -121.71731 15921 ft 359 kts 78°
2026-05-06 21:09 47.56223 -121.68027 16390 ft 364 kts 88°
2026-05-06 21:10 47.56160 -121.64283 16833 ft 367 kts 89°
2026-05-06 21:10 47.56070 -121.60463 17258 ft 370 kts 89°
2026-05-06 21:10 47.55994 -121.56624 17698 ft 373 kts 89°
2026-05-06 21:10 47.55932 -121.52795 18132 ft 375 kts 88°
2026-05-06 21:11 47.55876 -121.48936 18539 ft 377 kts 88°
2026-05-06 21:11 47.55820 -121.45025 18935 ft 380 kts 88°
2026-05-06 21:11 47.55763 -121.41116 19320 ft 383 kts 88°
2026-05-06 21:11 47.55704 -121.37169 19681 ft 386 kts 88°
2026-05-06 21:12 47.55643 -121.33158 20026 ft 389 kts 89°
2026-05-06 21:12 47.55580 -121.29130 20356 ft 393 kts 89°
2026-05-06 21:12 47.55515 -121.25063 20684 ft 396 kts 89°
2026-05-06 21:12 47.55449 -121.20995 21005 ft 399 kts 89°
2026-05-06 21:13 47.55380 -121.16851 21327 ft 402 kts 89°
2026-05-06 21:13 47.55310 -121.12740 21666 ft 405 kts 89°
2026-05-06 21:13 47.55236 -121.08516 22020 ft 407 kts 89°
2026-05-06 21:13 47.55161 -121.04328 22362 ft 408 kts 89°
2026-05-06 21:14 47.55085 -121.00135 22697 ft 410 kts 89°
2026-05-06 21:14 47.55007 -120.95928 23021 ft 412 kts 89°
2026-05-06 21:14 47.54926 -120.91650 23338 ft 414 kts 89°
2026-05-06 21:14 47.54842 -120.87345 23648 ft 416 kts 89°
2026-05-06 21:15 47.54758 -120.83066 23945 ft 418 kts 89°
2026-05-06 21:15 47.54672 -120.78757 24231 ft 420 kts 89°
2026-05-06 21:15 47.54583 -120.74409 24515 ft 423 kts 89°
2026-05-06 21:15 47.54492 -120.70035 24795 ft 425 kts 89°
2026-05-06 21:16 47.54401 -120.65708 25055 ft 427 kts 89°
2026-05-06 21:16 47.54306 -120.61278 25314 ft 429 kts 89°
2026-05-06 21:16 47.54209 -120.56834 25565 ft 432 kts 89°
2026-05-06 21:16 47.54110 -120.52403 25786 ft 434 kts 89°
2026-05-06 21:17 47.54008 -120.47907 26021 ft 437 kts 89°
2026-05-06 21:17 47.53904 -120.43447 26262 ft 439 kts 89°
2026-05-06 21:17 47.53810 -120.38924 26503 ft 440 kts 89°
2026-05-06 21:17 47.53742 -120.34345 26743 ft 442 kts 89°
2026-05-06 21:18 47.53679 -120.29790 26963 ft 444 kts 89°
2026-05-06 21:18 47.53614 -120.25240 27179 ft 446 kts 89°
2026-05-06 21:18 47.53546 -120.20656 27400 ft 448 kts 89°
2026-05-06 21:18 47.53474 -120.16032 27623 ft 449 kts 89°
2026-05-06 21:19 47.53400 -120.11449 27832 ft 451 kts 89°
2026-05-06 21:19 47.53323 -120.06796 28040 ft 453 kts 89°
2026-05-06 21:19 47.53243 -120.02122 28251 ft 455 kts 89°
2026-05-06 21:19 47.53161 -119.97439 28461 ft 456 kts 89°
2026-05-06 21:20 47.53077 -119.92750 28666 ft 458 kts 89°
2026-05-06 21:20 47.53019 -119.89614 28805 ft 459 kts 89°
2026-05-06 21:20 47.52902 -119.83354 29068 ft 461 kts 89°
2026-05-06 21:20 47.52810 -119.78592 29260 ft 463 kts 89°
2026-05-06 21:21 47.52716 -119.73795 29483 ft 464 kts 89°
2026-05-06 21:21 47.52622 -119.69059 29702 ft 465 kts 89°
2026-05-06 21:21 47.52524 -119.64278 29895 ft 466 kts 89°
2026-05-06 21:21 47.52423 -119.59441 30078 ft 468 kts 89°
2026-05-06 21:22 47.52320 -119.54620 30259 ft 470 kts 89°
2026-05-06 21:22 47.52216 -119.49788 30441 ft 471 kts 89°
2026-05-06 21:22 47.52108 -119.44942 30678 ft 471 kts 89°
2026-05-06 21:22 47.51999 -119.40120 30944 ft 470 kts 89°
2026-05-06 21:23 47.51889 -119.35307 31206 ft 470 kts 89°
2026-05-06 21:23 47.51776 -119.30492 31437 ft 470 kts 90°
2026-05-06 21:23 47.51661 -119.25651 31655 ft 470 kts 90°
2026-05-06 21:23 47.51545 -119.20832 31879 ft 470 kts 90°
2026-05-06 21:24 47.51426 -119.16011 32108 ft 469 kts 90°
2026-05-06 21:24 47.51305 -119.11191 32332 ft 469 kts 90°
2026-05-06 21:24 47.51183 -119.06381 32551 ft 469 kts 90°
2026-05-06 21:24 47.51058 -119.01588 32759 ft 469 kts 90°
2026-05-06 21:25 47.50928 -118.96748 32948 ft 469 kts 90°
2026-05-06 21:25 47.50798 -118.91958 33125 ft 470 kts 90°
2026-05-06 21:25 47.50666 -118.87135 33303 ft 471 kts 89°
2026-05-06 21:25 47.50576 -118.83881 33425 ft 471 kts 89°
2026-05-06 21:26 47.50395 -118.77454 33667 ft 471 kts 89°
2026-05-06 21:26 47.50259 -118.72627 33868 ft 471 kts 89°
2026-05-06 21:26 47.50123 -118.67836 34070 ft 471 kts 89°
2026-05-06 21:26 47.49984 -118.63011 34276 ft 470 kts 89°
2026-05-06 21:27 47.49841 -118.58178 34480 ft 469 kts 89°
2026-05-06 21:27 47.49696 -118.53334 34676 ft 469 kts 89°
2026-05-06 21:27 47.49649 -118.51772 34735 ft 469 kts 89°